| time (UTC) | temp F | wind direction | speed MPH | gust MPH | rain 1hr in | rain 24hr in | rain mn in | humidity % | barometer mb |
| 20260502224153 | 73 | 28 | 6.0 | 13.0 | 0.00 | 0.00 | 0.00 | 41 | 1020.0 |
| 20260502223636 | 74 | 24 | 7.0 | 13.0 | 0.00 | 0.00 | 0.00 | 40 | 1020.0 |
| 20260502223149 | 74 | 339 | 2.0 | 10.0 | 0.00 | 0.00 | 0.00 | 39 | 1020.0 |
| 20260502222632 | 74 | 26 | 6.0 | 16.0 | 0.00 | 0.00 | 0.00 | 40 | 1020.1 |
| 20260502222143 | 73 | 58 | 8.0 | 16.0 | 0.00 | 0.00 | 0.00 | 38 | 1020.1 |
| 20260502221713 | 73 | 22 | 5.0 | 16.0 | 0.00 | 0.00 | 0.00 | 39 | 1020.0 |
| 20260502221156 | 74 | 34 | 8.0 | 16.0 | 0.00 | 0.00 | 0.00 | 41 | 1020.1 |
| 20260502220706 | 74 | 344 | 7.0 | 13.0 | 0.00 | 0.00 | 0.00 | 41 | 1020.1 |
| 20260502220135 | 73 | 27 | 5.0 | 11.0 | 0.00 | 0.00 | 0.00 | 42 | 1020.1 |
| 20260502215632 | 73 | 67 | 7.0 | 11.0 | 0.00 | 0.03 | 0.00 | 39 | 1020.1 |
| 20260502215145 | 73 | 74 | 4.0 | 12.0 | 0.00 | 0.03 | 0.00 | 40 | 1020.2 |
| 20260502214627 | 73 | 5 | 5.0 | 18.0 | 0.00 | 0.03 | 0.00 | 41 | 1020.2 |
| 20260502214138 | 73 | 30 | 8.0 | 15.0 | 0.00 | 0.03 | 0.00 | 43 | 1020.3 |
| 20260502213650 | 73 | 19 | 6.0 | 14.0 | 0.00 | 0.03 | 0.00 | 41 | 1020.3 |
| 20260502213131 | 73 | 25 | 9.0 | 15.0 | 0.00 | 0.03 | 0.00 | 40 | 1020.4 |
| 20260502212642 | 73 | 40 | 9.0 | 15.0 | 0.00 | 0.03 | 0.00 | 42 | 1020.4 |
| 20260502212154 | 73 | 36 | 4.0 | 18.0 | 0.00 | 0.03 | 0.00 | 42 | 1020.5 |
| 20260502211637 | 74 | 30 | 8.0 | 18.0 | 0.00 | 0.03 | 0.00 | 40 | 1020.7 |
| 20260502211148 | 73 | 34 | 5.0 | 14.0 | 0.00 | 0.03 | 0.00 | 44 | 1020.7 |
| 20260502210632 | 72 | 30 | 8.0 | 16.0 | 0.00 | 0.03 | 0.00 | 42 | 1020.8 |
| 20260502210141 | 73 | 34 | 9.0 | 16.0 | 0.00 | 0.03 | 0.00 | 41 | 1020.9 |
| 20260502205654 | 72 | 28 | 10.0 | 15.0 | 0.00 | 0.09 | 0.00 | 42 | 1021.0 |
| 20260502205135 | 73 | 62 | 8.0 | 14.0 | 0.00 | 0.09 | 0.00 | 43 | 1021.0 |
| 20260502204644 | 73 | 338 | 6.0 | 14.0 | 0.00 | 0.09 | 0.00 | 43 | 1020.9 |
| 20260502204146 | 72 | 313 | 5.0 | 16.0 | 0.00 | 0.09 | 0.00 | 47 | 1021.0 |
| 20260502203657 | 72 | 34 | 9.0 | 16.0 | 0.00 | 0.09 | 0.00 | 42 | 1021.1 |
| 20260502203137 | 72 | 42 | 7.0 | 16.0 | 0.00 | 0.09 | 0.00 | 46 | 1021.1 |
| 20260502202641 | 72 | 5 | 7.0 | 16.0 | 0.00 | 0.09 | 0.00 | 44 | 1021.2 |
| 20260502202212 | 72 | 52 | 9.0 | 19.0 | 0.00 | 0.09 | 0.00 | 45 | 1021.3 |
| 20260502201633 | 72 | 32 | 8.0 | 19.0 | 0.00 | 0.09 | 0.00 | 47 | 1021.4 |
| 20260502201204 | 72 | 57 | 7.0 | 16.0 | 0.00 | 0.09 | 0.00 | 44 | 1021.4 |
| 20260502200654 | 71 | 341 | 9.0 | 16.0 | 0.00 | 0.09 | 0.00 | 43 | 1021.4 |
| 20260502200137 | 72 | 22 | 9.0 | 19.0 | 0.00 | 0.09 | 0.00 | 44 | 1021.4 |
| 20260502195648 | 72 | 28 | 5.0 | 19.0 | 0.00 | 0.09 | 0.00 | 45 | 1021.4 |
| 20260502195156 | 71 | 27 | 9.0 | 18.0 | 0.00 | 0.09 | 0.00 | 45 | 1021.5 |
| 20260502194658 | 71 | 36 | 10.0 | 18.0 | 0.00 | 0.09 | 0.00 | 45 | 1021.5 |
| 20260502194132 | 71 | 34 | 8.0 | 18.0 | 0.00 | 0.09 | 0.00 | 44 | 1021.6 |
| 20260502193643 | 71 | 338 | 7.0 | 15.0 | 0.00 | 0.09 | 0.00 | 48 | 1021.6 |
| 20260502193212 | 71 | 360 | 8.0 | 15.0 | 0.00 | 0.09 | 0.00 | 47 | 1021.6 |
| 20260502192633 | 71 | 5 | 8.0 | 15.0 | 0.00 | 0.09 | 0.00 | 46 | 1021.6 |
| 20260502192159 | 71 | 40 | 7.0 | 14.0 | 0.00 | 0.09 | 0.00 | 49 | 1021.6 |
| 20260502191647 | 71 | 30 | 8.0 | 14.0 | 0.00 | 0.09 | 0.00 | 47 | 1021.8 |
| 20260502191217 | 70 | 355 | 5.0 | 21.0 | 0.00 | 0.09 | 0.00 | 48 | 1021.8 |
| 20260502190636 | 70 | 51 | 7.0 | 21.0 | 0.00 | 0.09 | 0.00 | 50 | 1021.9 |
| 20260502190147 | 70 | 76 | 4.0 | 13.0 | 0.00 | 0.09 | 0.00 | 49 | 1021.8 |
| 20260502185637 | 69 | 9 | 8.0 | 16.0 | 0.00 | 0.10 | 0.00 | 49 | 1021.9 |
| 20260502185146 | 70 | 44 | 6.0 | 13.0 | 0.00 | 0.10 | 0.00 | 51 | 1022.0 |
| 20260502184649 | 69 | 49 | 8.0 | 14.0 | 0.00 | 0.10 | 0.00 | 49 | 1022.2 |
| 20260502184138 | 70 | 40 | 6.0 | 14.0 | 0.00 | 0.10 | 0.00 | 50 | 1022.2 |
| 20260502183640 | 70 | 67 | 8.0 | 14.0 | 0.00 | 0.10 | 0.00 | 56 | 1022.2 |
| 20260502183131 | 69 | 342 | 5.0 | 16.0 | 0.00 | 0.10 | 0.00 | 51 | 1022.3 |
| 20260502182633 | 68 | 64 | 7.0 | 16.0 | 0.00 | 0.10 | 0.00 | 51 | 1022.4 |
| 20260502182145 | 69 | 40 | 7.0 | 15.0 | 0.00 | 0.10 | 0.00 | 53 | 1022.5 |
| 20260502181651 | 68 | 19 | 8.0 | 16.0 | 0.00 | 0.10 | 0.00 | 55 | 1022.6 |
| 20260502181141 | 68 | 61 | 11.0 | 16.0 | 0.00 | 0.10 | 0.00 | 54 | 1022.5 |
| 20260502180645 | 68 | 49 | 6.0 | 11.0 | 0.00 | 0.10 | 0.00 | 56 | 1022.5 |
| 20260502180138 | 68 | 36 | 5.0 | 16.0 | 0.00 | 0.10 | 0.00 | 54 | 1022.7 |
| 20260502170208 | 67 | 59 | 6.0 | 16.0 | 0.00 | 0.34 | 0.00 | 56 | 1023.3 |
| 20260502164202 | 66 | 5 | 6.0 | 15.0 | 0.00 | 0.35 | 0.00 | 59 | 1023.3 |
| 20260502163631 | 65 | 38 | 9.0 | 16.0 | 0.00 | 0.35 | 0.00 | 57 | 1023.4 |
| 20260502163133 | 65 | 40 | 10.0 | 16.0 | 0.00 | 0.35 | 0.00 | 55 | 1023.3 |
| 20260502162713 | 65 | 18 | 9.0 | 16.0 | 0.00 | 0.35 | 0.00 | 55 | 1023.3 |
| 20260502162135 | 66 | 5 | 8.0 | 16.0 | 0.00 | 0.35 | 0.00 | 55 | 1023.5 |
| 20260502161705 | 65 | 38 | 4.0 | 13.0 | 0.00 | 0.35 | 0.00 | 60 | 1023.4 |
| 20260502161153 | 65 | 15 | 7.0 | 12.0 | 0.00 | 0.35 | 0.00 | 56 | 1023.4 |
| 20260502160636 | 64 | 16 | 5.0 | 13.0 | 0.00 | 0.35 | 0.00 | 60 | 1023.4 |
| 20260502160146 | 64 | 53 | 8.0 | 13.0 | 0.00 | 0.35 | 0.00 | 57 | 1023.4 |
| 20260502152143 | 62 | 28 | 6.0 | 13.0 | 0.00 | 0.37 | 0.00 | 65 | 1023.1 |
| 20260502151654 | 62 | 54 | 7.0 | 13.0 | 0.00 | 0.37 | 0.00 | 63 | 1023.2 |
| 20260502151156 | 62 | 31 | 5.0 | 10.0 | 0.00 | 0.37 | 0.00 | 66 | 1023.2 |
| 20260502150647 | 61 | 38 | 5.0 | 11.0 | 0.00 | 0.37 | 0.00 | 66 | 1023.1 |
| 20260502150158 | 61 | 30 | 7.0 | 13.0 | 0.00 | 0.37 | 0.00 | 67 | 1023.0 |
| 20260502130650 | 52 | 5 | 3.0 | 8.0 | 0.00 | 0.50 | 0.00 | 90 | 1021.9 |
| 20260502130129 | 51 | 350 | 3.0 | 8.0 | 0.00 | 0.50 | 0.00 | 91 | 1021.8 |
| 20260502123653 | 50 | 5 | 4.0 | 8.0 | 0.00 | 0.53 | 0.00 | 93 | 1021.4 |
| 20260502123135 | 49 | 355 | 4.0 | 8.0 | 0.00 | 0.53 | 0.00 | 93 | 1021.3 |
| 20260502122646 | 49 | 14 | 5.0 | 8.0 | 0.00 | 0.53 | 0.00 | 92 | 1021.2 |
| 20260502122219 | 49 | 355 | 5.0 | 7.0 | 0.00 | 0.53 | 0.00 | 92 | 1021.2 |
| 20260502121640 | 49 | 355 | 5.0 | 7.0 | 0.00 | 0.53 | 0.00 | 93 | 1021.1 |
| 20260502121148 | 49 | 355 | 3.0 | 6.0 | 0.00 | 0.53 | 0.00 | 93 | 1021.0 |
| 20260502120630 | 49 | 355 | 3.0 | 5.0 | 0.00 | 0.53 | 0.00 | 92 | 1020.9 |
| 20260502120200 | 49 | 9 | 0.0 | 0.0 | 0.00 | 0.53 | 0.00 | 92 | 1020.9 |
| 20260502115650 | 49 | 20 | 0.0 | 6.0 | 0.00 | 0.62 | 0.00 | 92 | 1020.7 |
| 20260502115156 | 49 | 25 | 3.0 | 6.0 | 0.00 | 0.62 | 0.00 | 93 | 1020.7 |
| 20260502114648 | 49 | 12 | 3.0 | 6.0 | 0.00 | 0.62 | 0.00 | 93 | 1020.6 |
| 20260502114144 | 49 | 360 | 3.0 | 8.0 | 0.00 | 0.62 | 0.00 | 93 | 1020.7 |
| 20260502113658 | 49 | 360 | 4.0 | 9.0 | 0.00 | 0.62 | 0.00 | 93 | 1020.6 |
| 20260502113205 | 49 | 5 | 5.0 | 8.0 | 0.00 | 0.62 | 0.00 | 93 | 1020.4 |
| 20260502112644 | 49 | 351 | 4.0 | 11.0 | 0.00 | 0.62 | 0.00 | 93 | 1020.4 |
| 20260502112151 | 49 | 5 | 5.0 | 11.0 | 0.00 | 0.62 | 0.00 | 93 | 1020.3 |
| 20260502111642 | 49 | 5 | 5.0 | 9.0 | 0.00 | 0.62 | 0.00 | 93 | 1020.3 |
| 20260502111140 | 49 | 9 | 5.0 | 9.0 | 0.00 | 0.62 | 0.00 | 93 | 1020.3 |
| 20260502110631 | 49 | 10 | 5.0 | 9.0 | 0.00 | 0.62 | 0.00 | 93 | 1020.2 |
| 20260502110126 | 49 | 12 | 5.0 | 9.0 | 0.00 | 0.62 | 0.00 | 93 | 1020.2 |
| 20260502105637 | 49 | 355 | 5.0 | 9.0 | 0.00 | 0.83 | 0.00 | 93 | 1020.2 |
| 20260502105208 | 49 | 344 | 5.0 | 10.0 | 0.00 | 0.83 | 0.00 | 94 | 1020.2 |
| 20260502104658 | 49 | 12 | 6.0 | 10.0 | 0.00 | 0.83 | 0.00 | 94 | 1020.1 |
| 20260502104140 | 49 | 5 | 6.0 | 10.0 | 0.00 | 0.83 | 0.00 | 94 | 1020.1 |
| 20260502103651 | 49 | 5 | 5.0 | 10.0 | 0.00 | 0.83 | 0.00 | 94 | 1019.9 |
| 20260502103154 | 48 | 360 | 5.0 | 10.0 | 0.00 | 0.83 | 0.00 | 94 | 1019.8 |
| 20260502102646 | 48 | 5 | 6.0 | 10.0 | 0.00 | 0.83 | 0.00 | 94 | 1019.8 |
| 20260502102156 | 48 | 5 | 5.0 | 7.0 | 0.00 | 0.83 | 0.00 | 93 | 1019.8 |
| 20260502101639 | 48 | 360 | 4.0 | 6.0 | 0.00 | 0.83 | 0.00 | 93 | 1019.8 |
| 20260502101152 | 48 | 360 | 4.0 | 6.0 | 0.00 | 0.83 | 0.00 | 93 | 1019.8 |
| 20260502100634 | 48 | 5 | 3.0 | 6.0 | 0.00 | 0.83 | 0.00 | 93 | 1019.6 |
| 20260502100145 | 48 | 5 | 4.0 | 6.0 | 0.00 | 0.83 | 0.00 | 93 | 1019.7 |
| 20260502091145 | 50 | 355 | 0.0 | 0.0 | 0.00 | 1.00 | 0.00 | 92 | 1019.0 |
| 20260502090637 | 50 | 355 | 0.0 | 0.0 | 0.00 | 1.00 | 0.00 | 92 | 1019.0 |
| 20260502090138 | 50 | 355 | 0.0 | 0.0 | 0.00 | 1.00 | 0.00 | 93 | 1018.9 |
| 20260502071138 | 51 | 9 | 5.0 | 8.0 | 0.00 | 1.26 | 0.00 | 92 | 1018.2 |
| 20260502070649 | 51 | 25 | 4.0 | 9.0 | 0.00 | 1.26 | 0.00 | 92 | 1018.2 |
| 20260502070131 | 51 | 355 | 4.0 | 9.0 | 0.00 | 1.26 | 0.00 | 92 | 1018.3 |
| 20260502065639 | 51 | 11 | 2.0 | 7.0 | 0.00 | 1.44 | 0.00 | 92 | 1018.3 |
| 20260502065137 | 51 | 342 | 1.0 | 6.0 | 0.00 | 1.44 | 0.00 | 92 | 1018.4 |
| 20260502064646 | 51 | 342 | 1.0 | 3.0 | 0.00 | 1.44 | 0.00 | 91 | 1018.5 |
| 20260502064130 | 51 | 342 | 0.0 | 2.0 | 0.00 | 1.44 | 0.00 | 91 | 1018.5 |
| 20260502063639 | 51 | 350 | 1.0 | 5.0 | 0.00 | 1.44 | 0.00 | 91 | 1018.4 |
| 20260502063147 | 51 | 350 | 2.0 | 5.0 | 0.00 | 1.44 | 0.00 | 91 | 1018.4 |
| 20260502062626 | 51 | 355 | 0.0 | 7.0 | 0.00 | 1.44 | 0.00 | 91 | 1018.4 |
| 20260502062134 | 51 | 355 | 2.0 | 7.0 | 0.00 | 1.44 | 0.00 | 91 | 1018.4 |
| 20260502061642 | 52 | 355 | 1.0 | 7.0 | 0.00 | 1.44 | 0.00 | 91 | 1018.4 |
| 20260502061141 | 52 | 355 | 2.0 | 6.0 | 0.00 | 1.44 | 0.00 | 90 | 1018.4 |
| 20260502060645 | 52 | 355 | 1.0 | 8.0 | 0.00 | 1.44 | 0.00 | 91 | 1018.5 |
| 20260502060132 | 52 | 342 | 4.0 | 8.0 | 0.00 | 1.44 | 0.00 | 90 | 1018.5 |
| 20260502055639 | 52 | 9 | 3.0 | 7.0 | 0.00 | 1.51 | 0.00 | 90 | 1018.4 |
| 20260502055146 | 52 | 349 | 2.0 | 9.0 | 0.00 | 1.51 | 0.00 | 90 | 1018.4 |
| 20260502054645 | 52 | 5 | 3.0 | 8.0 | 0.00 | 1.51 | 0.00 | 90 | 1018.3 |
| 20260502054128 | 52 | 43 | 5.0 | 9.0 | 0.00 | 1.51 | 0.00 | 90 | 1018.2 |
| 20260502053636 | 52 | 24 | 5.0 | 10.0 | 0.00 | 1.51 | 0.00 | 90 | 1018.3 |
| 20260502053145 | 52 | 360 | 6.0 | 12.0 | 0.00 | 1.51 | 0.00 | 89 | 1018.5 |
| 20260502052625 | 52 | 360 | 6.0 | 12.0 | 0.00 | 1.51 | 0.00 | 89 | 1018.5 |
| 20260502052134 | 52 | 12 | 6.0 | 12.0 | 0.00 | 1.51 | 0.00 | 89 | 1018.5 |
| 20260502051702 | 52 | 347 | 7.0 | 12.0 | 0.00 | 1.51 | 0.00 | 89 | 1018.6 |
| 20260502051129 | 53 | 5 | 6.0 | 10.0 | 0.00 | 1.51 | 0.00 | 89 | 1018.6 |
| 20260502050627 | 53 | 5 | 5.0 | 10.0 | 0.00 | 1.51 | 0.00 | 89 | 1018.6 |
| 20260502050132 | 53 | 355 | 6.0 | 13.0 | 0.00 | 1.51 | 0.00 | 89 | 1018.5 |
| 20260502045635 | 53 | 23 | 6.0 | 13.0 | 0.00 | 1.51 | 1.51 | 89 | 1018.4 |
| 20260502045126 | 53 | 17 | 6.0 | 15.0 | 0.00 | 1.51 | 1.51 | 89 | 1018.3 |
| 20260502044641 | 53 | 5 | 7.0 | 15.0 | 0.00 | 1.51 | 1.51 | 89 | 1018.3 |
| 20260502044143 | 53 | 355 | 7.0 | 15.0 | 0.00 | 1.51 | 1.51 | 89 | 1018.3 |
| 20260502043653 | 53 | 5 | 8.0 | 16.0 | 0.00 | 1.51 | 1.51 | 89 | 1018.3 |
| 20260502043138 | 53 | 355 | 7.0 | 16.0 | 0.00 | 1.51 | 1.51 | 89 | 1018.2 |
| 20260502042650 | 53 | 360 | 8.0 | 15.0 | 0.00 | 1.51 | 1.51 | 89 | 1018.2 |
| 20260502042159 | 53 | 12 | 6.0 | 15.0 | 0.00 | 1.51 | 1.51 | 89 | 1018.2 |
| 20260502041641 | 53 | 331 | 8.0 | 18.0 | 0.00 | 1.51 | 1.51 | 89 | 1018.2 |
| 20260502041152 | 53 | 355 | 9.0 | 18.0 | 0.00 | 1.51 | 1.51 | 88 | 1018.3 |
| 20260502040636 | 53 | 9 | 9.0 | 19.0 | 0.00 | 1.51 | 1.51 | 88 | 1018.2 |
| 20260502040148 | 53 | 5 | 8.0 | 19.0 | 0.00 | 1.51 | 1.51 | 88 | 1018.0 |
| 20260502035650 | 53 | 10 | 10.0 | 20.0 | 0.00 | 1.51 | 1.51 | 88 | 1018.0 |
| 20260502035201 | 53 | 5 | 11.0 | 21.0 | 0.00 | 1.51 | 1.51 | 89 | 1018.1 |
| 20260502034650 | 53 | 14 | 10.0 | 21.0 | 0.00 | 1.51 | 1.51 | 89 | 1018.1 |
| 20260502034201 | 54 | 355 | 7.0 | 20.0 | 0.00 | 1.51 | 1.51 | 89 | 1018.0 |
| 20260502033640 | 54 | 5 | 8.0 | 20.0 | 0.00 | 1.51 | 1.51 | 89 | 1018.0 |
| 20260502033153 | 54 | 30 | 8.0 | 22.0 | 0.00 | 1.51 | 1.51 | 90 | 1017.9 |
| 20260502032643 | 54 | 355 | 9.0 | 22.0 | 0.00 | 1.51 | 1.51 | 90 | 1017.9 |
| 20260502032145 | 53 | 350 | 9.0 | 22.0 | 0.00 | 1.51 | 1.51 | 90 | 1017.8 |
| 20260502031657 | 53 | 5 | 9.0 | 16.0 | 0.00 | 1.51 | 1.51 | 90 | 1017.8 |
| 20260502031138 | 53 | 5 | 9.0 | 18.0 | 0.00 | 1.51 | 1.51 | 89 | 1017.7 |
| 20260502030649 | 53 | 23 | 10.0 | 18.0 | 0.00 | 1.51 | 1.51 | 89 | 1017.5 |
| 20260502030129 | 53 | 17 | 9.0 | 16.0 | 0.00 | 1.51 | 1.51 | 89 | 1017.6 |
| 20260502025642 | 53 | 17 | 6.0 | 19.0 | 0.00 | 1.51 | 1.51 | 89 | 1017.5 |
| 20260502025154 | 53 | 360 | 9.0 | 19.0 | 0.00 | 1.51 | 1.51 | 89 | 1017.4 |
| 20260502024636 | 53 | 360 | 6.0 | 15.0 | 0.00 | 1.51 | 1.51 | 89 | 1017.4 |
| 20260502024206 | 53 | 10 | 9.0 | 15.0 | 0.00 | 1.51 | 1.51 | 89 | 1017.3 |
| 20260502023656 | 53 | 15 | 8.0 | 18.0 | 0.00 | 1.51 | 1.51 | 89 | 1017.2 |
| 20260502023131 | 53 | 54 | 9.0 | 18.0 | 0.00 | 1.51 | 1.51 | 89 | 1017.1 |
| 20260502022643 | 53 | 5 | 8.0 | 16.0 | 0.00 | 1.51 | 1.51 | 89 | 1016.9 |
| 20260502022154 | 53 | 5 | 7.0 | 16.0 | 0.00 | 1.51 | 1.51 | 90 | 1016.9 |
| 20260502021636 | 54 | 360 | 6.0 | 20.0 | 0.00 | 1.51 | 1.51 | 90 | 1016.7 |
| 20260502021140 | 54 | 17 | 8.0 | 20.0 | 0.00 | 1.51 | 1.51 | 90 | 1016.6 |
| 20260502020643 | 54 | 33 | 8.0 | 21.0 | 0.00 | 1.51 | 1.51 | 90 | 1016.6 |
| 20260502020135 | 54 | 13 | 8.0 | 21.0 | 0.00 | 1.51 | 1.51 | 90 | 1016.5 |
| 20260502015708 | 54 | 12 | 10.0 | 18.0 | 0.00 | 1.51 | 1.51 | 90 | 1016.5 |
| 20260502015145 | 54 | 344 | 6.0 | 20.0 | 0.00 | 1.51 | 1.51 | 91 | 1016.4 |
| 20260502014636 | 54 | 13 | 8.0 | 22.0 | 0.00 | 1.51 | 1.51 | 91 | 1016.2 |
| 20260502014138 | 54 | 30 | 10.0 | 23.0 | 0.00 | 1.51 | 1.51 | 91 | 1016.2 |
| 20260502013649 | 54 | 318 | 12.0 | 23.0 | 0.00 | 1.51 | 1.51 | 91 | 1016.1 |
| 20260502013155 | 54 | 19 | 11.0 | 25.0 | 0.00 | 1.51 | 1.51 | 91 | 1016.1 |
| 20260502012637 | 54 | 355 | 8.0 | 25.0 | 0.00 | 1.51 | 1.51 | 91 | 1015.9 |
| 20260502012149 | 54 | 316 | 11.0 | 24.0 | 0.00 | 1.51 | 1.51 | 91 | 1015.8 |
| 20260502011659 | 55 | 14 | 9.0 | 21.0 | 0.00 | 1.51 | 1.51 | 91 | 1015.9 |
| 20260502011136 | 55 | 15 | 12.0 | 22.0 | 0.00 | 1.51 | 1.51 | 91 | 1015.8 |
| 20260502010651 | 55 | 350 | 8.0 | 24.0 | 0.00 | 1.51 | 1.51 | 91 | 1015.7 |
| 20260502010148 | 55 | 17 | 14.0 | 24.0 | 0.00 | 1.51 | 1.51 | 91 | 1015.5 |
| 20260502005659 | 56 | 43 | 11.0 | 24.0 | 0.00 | 1.51 | 1.51 | 91 | 1015.4 |
| 20260502005141 | 56 | 355 | 8.0 | 22.0 | 0.00 | 1.51 | 1.51 | 91 | 1015.3 |
| 20260502004648 | 56 | 343 | 10.0 | 24.0 | 0.00 | 1.51 | 1.51 | 91 | 1015.2 |
| 20260502004156 | 56 | 27 | 11.0 | 24.0 | 0.00 | 1.51 | 1.51 | 91 | 1015.1 |
| 20260502003635 | 56 | 5 | 9.0 | 19.0 | 0.00 | 1.51 | 1.51 | 92 | 1015.1 |
| 20260502003146 | 56 | 327 | 7.0 | 22.0 | 0.00 | 1.51 | 1.51 | 92 | 1015.0 |
| 20260502002628 | 56 | 17 | 11.0 | 22.0 | 0.00 | 1.51 | 1.51 | 92 | 1014.9 |
| 20260502002158 | 56 | 11 | 11.0 | 21.0 | 0.00 | 1.51 | 1.51 | 92 | 1014.8 |
| 20260502001638 | 56 | 19 | 9.0 | 19.0 | 0.00 | 1.51 | 1.51 | 92 | 1014.6 |
| 20260502001151 | 56 | 71 | 11.0 | 19.0 | 0.00 | 1.51 | 1.51 | 92 | 1014.5 |
| 20260502000632 | 56 | 5 | 10.0 | 24.0 | 0.00 | 1.51 | 1.51 | 92 | 1014.3 |
| 20260502000145 | 56 | 346 | 11.0 | 21.0 | 0.00 | 1.51 | 1.51 | 92 | 1014.4 |
| 20260501235656 | 56 | 56 | 9.0 | 22.0 | 0.00 | 1.51 | 1.51 | 92 | 1014.4 |
| 20260501235141 | 57 | 26 | 11.0 | 22.0 | 0.00 | 1.51 | 1.51 | 93 | 1014.3 |
| 20260501234651 | 57 | 28 | 11.0 | 19.0 | 0.00 | 1.51 | 1.51 | 93 | 1014.2 |
| 20260501234220 | 57 | 30 | 10.0 | 22.0 | 0.00 | 1.51 | 1.51 | 93 | 1014.1 |
| 20260501233641 | 57 | 13 | 13.0 | 22.0 | 0.00 | 1.51 | 1.51 | 93 | 1014.0 |
| 20260501233152 | 57 | 5 | 8.0 | 22.0 | 0.00 | 1.51 | 1.51 | 93 | 1014.0 |
| 20260501232642 | 57 | 5 | 12.0 | 21.0 | 0.00 | 1.51 | 1.51 | 93 | 1013.8 |
| 20260501232144 | 57 | 5 | 8.0 | 20.0 | 0.00 | 1.51 | 1.51 | 94 | 1013.6 |
| 20260501231636 | 57 | 336 | 8.0 | 20.0 | 0.00 | 1.51 | 1.51 | 94 | 1013.6 |
| 20260501231138 | 57 | 10 | 6.0 | 21.0 | 0.00 | 1.51 | 1.51 | 94 | 1013.3 |
| 20260501230629 | 57 | 22 | 11.0 | 21.0 | 0.00 | 1.51 | 1.51 | 94 | 1013.1 |
| 20260501230159 | 57 | 5 | 11.0 | 21.0 | 0.00 | 1.51 | 1.51 | 94 | 1013.2 |
| 20260501225640 | 57 | 18 | 11.0 | 22.0 | 0.00 | 1.51 | 1.51 | 94 | 1013.4 |
| 20260501225217 | 58 | 334 | 9.0 | 21.0 | 0.00 | 1.51 | 1.51 | 94 | 1013.2 |
| 20260501224637 | 58 | 17 | 10.0 | 22.0 | 0.00 | 1.51 | 1.51 | 94 | 1013.2 |